Regional Weather Roundup
Issued by NWS

Home | Current Version | Previous Version | Graphics & Text | Print | Product List | Glossary On
Versions: 1 2 3 4 5 6 7 8 9 10 11 12 13 14 15 16 17 18 19 20 21 22 23 24 25 26 27 28 29 30 31 32 33 34 35 36 37 38 39 40 41 42 43 44 45 46 47 48 49 50
000
ASUS43 KFSD 180802
RWRSD

WEATHER ROUNDUP FOR SOUTH DAKOTA
NATIONAL WEATHER SERVICE SIOUX FALLS SD
200 AM CST THU JAN 18 2018

NOTE: "FAIR" INDICATES FEW OR NO CLOUDS BELOW 12,000 FEET WITH NO
SIGNIFICANT WEATHER AND/OR OBSTRUCTIONS TO VISIBILITY.


SDZ001>005-009-010-012>017-180900-
NORTHWEST AND NORTH CENTRAL SOUTH DAKOTA

CITY           SKY/WX    TMP DP  RH WIND       PRES   REMARKS
BUFFALO          N/A     35  23  61 W16       29.87F WCI  25
FAITH            N/A     26  19  74 SW13      29.95F WCI  15
MOBRIDGE       MOCLDY    27  21  78 SE8       29.93F WCI  19
$$

SDZ012>016-024>037-041>051-057-063-072>074-180900-
SOUTHWEST AND SOUTH CENTRAL SOUTH DAKOTA

CITY           SKY/WX    TMP DP  RH WIND       PRES   REMARKS
RAPID CTY ARPT MOCLDY    29  17  61 CALM      29.98F
PIERRE         PTCLDY    28  21  75 NW5       29.99F WCI  23
CUSTER         MOCLDY    34  16  47 SW9       30.01F WCI  27
ELLSWORTH AFB  MOCLDY    30  18  62 W6        29.97F WCI  24
PHILIP         CLEAR     23  20  88 W7        29.99F WCI  15
PINE RIDGE     CLEAR     23  18  81 W6        30.04F WCI  16
SPEARFISH        N/A     43  16  33 W8        29.98F
WINNER         FAIR      33  21  61 S7        30.05F WCI  27
$$

SDZ004>011-016>023-039-040-180900-
NORTHEAST SOUTH DAKOTA

CITY           SKY/WX    TMP DP  RH WIND       PRES   REMARKS
ABERDEEN       MOCLDY    18  16  92 S8        29.98F WCI   8
WATERTOWN      CLOUDY    19  17  92 CALM      29.99F
BROOKINGS      CLOUDY    18  16  92 S6        30.02F WCI  10
SISSETON         N/A     35  22  58 W10       29.93F WCI  27
$$

SDZ017-020-022-023-036>040-048>070-180900-
SOUTHEAST SOUTH DAKOTA

CITY           SKY/WX    TMP DP  RH WIND       PRES   REMARKS
SIOUX FALLS    CLOUDY    18  15  88 SW6       30.07F WCI  10
HURON          PTCLDY    18  16  92 SE5       30.02F WCI  11
CHAMBERLAIN    CLEAR     27  24  88 S6        30.04F WCI  21
MITCHELL       CLEAR     19  16  88 SW5       30.07F WCI  12
YANKTON        CLOUDY    23  18  81 W5        30.12F WCI  17
$$

ABBREVIATIONS USED IN REMARKS
   TC - TEMPERATURE IN CELSIUS
  WCI - WIND CHILL INDEX
   HX - HEAT INDEX
  VSB - VISIBILITY




USA.gov is the U.S. government's official web portal to all federal, state and local government web resources and services.